Overview Statistics Trail Chart Weather Telemetry Raw packets
 

This is the latest recevied weather packets stored in our database for station/object 4S6DRJ-13. If no packets are shown the sender has not sent any weather packets the latest 10 day(s).

<< 557 558 559 560 561 562 563 >>
Time Temp. Humidity Pressure Rain* Wind** Luminosity Snow
1787589706 28.33° C 83% 1011.7 hPa 0 mm 1.79 m/s, 178° 0 W/m² -
1787589645 28.33° C 83% 1011.6 hPa 0 mm 0.45 m/s, 219° 0 W/m² -
1787589585 28.33° C 83% 1011.9 hPa 0 mm 2.24 m/s, 209° 0 W/m² -
1787589523 28.33° C 83% 1011.7 hPa 0 mm 1.34 m/s, 212° 0 W/m² -
1787589462 28.33° C 83% 1011.8 hPa 0 mm 1.34 m/s, 225° 0 W/m² -
1787589401 28.33° C 83% 1011.8 hPa 0 mm 0.45 m/s, 241° 0 W/m² -
1787589341 28.33° C 83% 1011.8 hPa 0 mm 1.79 m/s, 207° 0 W/m² -
1787589279 28.33° C 83% 1011.9 hPa 0 mm 0.89 m/s, 230° 0 W/m² -
1787589218 28.33° C 83% 1011.9 hPa 0 mm 0 m/s 0 W/m² -
1787589157 28.33° C 83% 1011.8 hPa 0 mm 0.45 m/s, 238° 0 W/m² -
1787589096 28.33° C 83% 1011.8 hPa 0 mm 0.45 m/s, 254° 0 W/m² -
1787589035 28.33° C 83% 1011.8 hPa 0 mm 2.24 m/s, 155° 0 W/m² -
1787588974 28.33° C 83% 1011.7 hPa 0 mm 2.24 m/s, 226° 0 W/m² -
1787588913 28.33° C 83% 1011.8 hPa 0 mm 0.89 m/s, 234° 0 W/m² -
1787588852 28.33° C 83% 1011.8 hPa 0 mm 0.89 m/s, 242° 0 W/m² -
1787588791 28.33° C 83% 1011.7 hPa 0 mm 1.34 m/s, 207° 0 W/m² -
1787588730 28.33° C 83% 1011.8 hPa 0 mm 0.89 m/s, 153° 0 W/m² -
1787588669 28.33° C 83% 1011.8 hPa 0 mm 2.24 m/s, 227° 0 W/m² -
1787588608 28.33° C 83% 1011.7 hPa 0 mm 1.79 m/s, 220° 0 W/m² -
1787588546 28.33° C 83% 1011.7 hPa 0 mm 0.89 m/s, 231° 0 W/m² -
1787588486 28.33° C 83% 1011.9 hPa 0 mm 1.34 m/s, 204° 0 W/m² -
1787588425 28.33° C 83% 1011.8 hPa 0 mm 0.45 m/s, 292° 0 W/m² -
1787588364 28.33° C 83% 1011.7 hPa 0 mm 0.45 m/s, 210° 0 W/m² -
1787588303 28.33° C 83% 1011.5 hPa 0 mm 0.89 m/s, 220° 0 W/m² -
1787588242 28.33° C 83% 1011.7 hPa 0 mm 1.34 m/s, 223° 0 W/m² -

* Rain latest hour (hover to see other rain measurements)
** Current wind speed in m/s (hover to see current wind gust speed)